GLD166 SWKO-SWLB

Flight info

Callsign GLD166
Flight time 1h 24m
Altitude 4500
Route 0421S06311W 0506S06321W 0555S06360W 0634S06430W 0655S06443W
Aircraft C182/M-SDFGIRY/S

Departure

Time 2026-05-04 20:36
Airport Danilson Municipal Airport (SWKO)

Arrival

Time 2026-05-04 22:01
Airport Lábrea Airport (SWLB)
Time Latitude Longitude Altitude Speed Heading
2026-05-04 20:33 -4.13213 -63.13488 143 ft 0 kts 218°
2026-05-04 20:33 -4.13224 -63.13493 143 ft 7 kts 191°
2026-05-04 20:34 -4.13306 -63.13481 143 ft 14 kts 171°
2026-05-04 20:34 -4.13352 -63.13480 143 ft 0 kts 172°
2026-05-04 20:35 -4.13391 -63.13501 142 ft 17 kts 231°
2026-05-04 20:35 -4.13408 -63.13627 141 ft 13 kts 161°
2026-05-04 20:35 -4.13406 -63.13493 142 ft 41 kts 87°
2026-05-04 20:35 -4.13405 -63.13082 232 ft 64 kts 89°
2026-05-04 20:36 -4.13416 -63.12580 399 ft 83 kts 88°
2026-05-04 20:36 -4.13373 -63.11980 725 ft 94 kts 78°
2026-05-04 20:36 -4.12823 -63.11539 857 ft 121 kts 14°
2026-05-04 20:36 -4.11966 -63.11692 962 ft 140 kts 325°
2026-05-04 20:37 -4.11488 -63.12577 1055 ft 151 kts 281°
2026-05-04 20:37 -4.11822 -63.13570 1126 ft 157 kts 225°
2026-05-04 20:37 -4.12777 -63.14045 1222 ft 154 kts 188°
2026-05-04 20:37 -4.13813 -63.13922 1334 ft 151 kts 173°
2026-05-04 20:38 -4.14861 -63.13955 1452 ft 149 kts 179°
2026-05-04 20:38 -4.15878 -63.13994 1579 ft 149 kts 179°
2026-05-04 20:38 -4.16910 -63.14040 1700 ft 147 kts 179°
2026-05-04 20:38 -4.17931 -63.14083 1829 ft 148 kts 178°
2026-05-04 20:39 -4.18966 -63.14124 1945 ft 148 kts 179°
2026-05-04 20:39 -4.19991 -63.14149 2070 ft 148 kts 178°
2026-05-04 20:39 -4.21031 -63.14182 2191 ft 150 kts 179°
2026-05-04 20:39 -4.22091 -63.14223 2317 ft 155 kts 178°
2026-05-04 20:40 -4.23171 -63.14267 2442 ft 155 kts 177°
2026-05-04 20:40 -4.24255 -63.14327 2565 ft 157 kts 180°
2026-05-04 20:40 -4.25354 -63.14367 2690 ft 159 kts 178°
2026-05-04 20:40 -4.26452 -63.14401 2806 ft 160 kts 179°
2026-05-04 20:41 -4.27555 -63.14436 2919 ft 156 kts 178°
2026-05-04 20:41 -4.28635 -63.14469 3040 ft 155 kts 178°
2026-05-04 20:41 -4.29701 -63.14505 3162 ft 152 kts 179°
2026-05-04 20:41 -4.30755 -63.14534 3278 ft 151 kts 178°
2026-05-04 20:42 -4.31805 -63.14573 3395 ft 151 kts 178°
2026-05-04 20:42 -4.32851 -63.14618 3515 ft 150 kts 179°
2026-05-04 20:42 -4.33897 -63.14660 3634 ft 150 kts 178°
2026-05-04 20:42 -4.34934 -63.14701 3754 ft 149 kts 179°
2026-05-04 20:43 -4.35965 -63.14740 3875 ft 148 kts 178°
2026-05-04 20:43 -4.36991 -63.14780 3997 ft 147 kts 179°
2026-05-04 20:43 -4.38015 -63.14816 4117 ft 147 kts 178°
2026-05-04 20:43 -4.39038 -63.14854 4237 ft 147 kts 178°
2026-05-04 20:44 -4.40048 -63.14897 4359 ft 147 kts 178°
2026-05-04 20:44 -4.41067 -63.14929 4482 ft 147 kts 178°
2026-05-04 20:44 -4.42093 -63.14966 4566 ft 151 kts 178°
2026-05-04 20:44 -4.43170 -63.15013 4570 ft 157 kts 178°
2026-05-04 20:45 -4.44262 -63.15149 4566 ft 161 kts 192°
2026-05-04 20:45 -4.45337 -63.15514 4571 ft 164 kts 197°
2026-05-04 20:45 -4.46415 -63.15915 4575 ft 165 kts 197°
2026-05-04 20:45 -4.47497 -63.16316 4575 ft 166 kts 197°
2026-05-04 20:46 -4.48580 -63.16719 4573 ft 166 kts 197°
2026-05-04 20:46 -4.49666 -63.17112 4577 ft 166 kts 196°
2026-05-04 20:46 -4.50756 -63.17516 4574 ft 167 kts 197°
2026-05-04 20:46 -4.51841 -63.17921 4576 ft 167 kts 197°
2026-05-04 20:47 -4.52919 -63.18322 4580 ft 167 kts 197°
2026-05-04 20:47 -4.54007 -63.18731 4577 ft 167 kts 197°
2026-05-04 20:47 -4.55096 -63.19134 4580 ft 167 kts 197°
2026-05-04 20:47 -4.56183 -63.19537 4579 ft 166 kts 197°
2026-05-04 20:48 -4.57259 -63.19946 4575 ft 165 kts 197°
2026-05-04 20:48 -4.58342 -63.20344 4580 ft 166 kts 196°
2026-05-04 20:48 -4.59427 -63.20749 4574 ft 167 kts 197°
2026-05-04 20:48 -4.60512 -63.21153 4575 ft 166 kts 196°
2026-05-04 20:49 -4.61599 -63.21559 4576 ft 167 kts 197°
2026-05-04 20:49 -4.62690 -63.21958 4578 ft 167 kts 197°
2026-05-04 20:49 -4.63779 -63.22359 4573 ft 167 kts 197°
2026-05-04 20:49 -4.64866 -63.22760 4573 ft 167 kts 197°
2026-05-04 20:50 -4.65944 -63.23152 4578 ft 167 kts 197°
2026-05-04 20:50 -4.67035 -63.23545 4581 ft 167 kts 196°
2026-05-04 20:50 -4.68126 -63.23940 4577 ft 166 kts 197°
2026-05-04 20:50 -4.69219 -63.24331 4575 ft 167 kts 196°
2026-05-04 20:51 -4.70310 -63.24729 4578 ft 167 kts 197°
2026-05-04 20:51 -4.71404 -63.25125 4576 ft 167 kts 196°
2026-05-04 20:51 -4.72498 -63.25523 4578 ft 167 kts 197°
2026-05-04 20:51 -4.73592 -63.25921 4578 ft 167 kts 196°
2026-05-04 20:52 -4.74684 -63.26318 4581 ft 167 kts 196°
2026-05-04 20:52 -4.75782 -63.26715 4578 ft 167 kts 196°
2026-05-04 20:52 -4.76876 -63.27110 4583 ft 167 kts 196°
2026-05-04 20:52 -4.77968 -63.27507 4578 ft 167 kts 196°
2026-05-04 20:53 -4.79067 -63.27906 4577 ft 167 kts 196°
2026-05-04 20:53 -4.80143 -63.28296 4579 ft 167 kts 196°
2026-05-04 20:53 -4.81236 -63.28693 4579 ft 167 kts 196°
2026-05-04 20:53 -4.82324 -63.29093 4579 ft 167 kts 196°
2026-05-04 20:54 -4.83418 -63.29491 4579 ft 167 kts 196°
2026-05-04 20:54 -4.84509 -63.29894 4577 ft 167 kts 196°
2026-05-04 20:54 -4.85598 -63.30289 4577 ft 166 kts 196°
2026-05-04 20:54 -4.86686 -63.30680 4575 ft 166 kts 196°
2026-05-04 20:55 -4.87772 -63.31068 4570 ft 166 kts 196°
2026-05-04 20:55 -4.88861 -63.31461 4574 ft 167 kts 196°
2026-05-04 20:55 -4.89951 -63.31853 4572 ft 166 kts 196°
2026-05-04 20:55 -4.91038 -63.32245 4571 ft 166 kts 196°
2026-05-04 20:56 -4.92128 -63.32647 4573 ft 167 kts 197°
2026-05-04 20:56 -4.93218 -63.33039 4574 ft 166 kts 196°
2026-05-04 20:56 -4.94307 -63.33431 4573 ft 166 kts 196°
2026-05-04 20:56 -4.95394 -63.33824 4576 ft 166 kts 196°
2026-05-04 20:57 -4.96484 -63.34212 4575 ft 167 kts 196°
2026-05-04 20:57 -4.97580 -63.34599 4577 ft 167 kts 196°
2026-05-04 20:57 -4.98662 -63.34982 4574 ft 167 kts 196°
2026-05-04 20:57 -4.99758 -63.35372 4574 ft 168 kts 196°
2026-05-04 20:58 -5.00859 -63.35758 4577 ft 167 kts 195°
2026-05-04 20:58 -5.01960 -63.36151 4577 ft 168 kts 196°
2026-05-04 20:58 -5.03058 -63.36541 4576 ft 167 kts 196°
2026-05-04 20:58 -5.04156 -63.36933 4576 ft 167 kts 196°
2026-05-04 20:59 -5.05253 -63.37318 4575 ft 167 kts 196°
2026-05-04 20:59 -5.06347 -63.37701 4572 ft 166 kts 195°
2026-05-04 20:59 -5.07434 -63.38081 4576 ft 165 kts 195°
2026-05-04 20:59 -5.08522 -63.38467 4576 ft 166 kts 196°
2026-05-04 21:00 -5.09500 -63.39101 4561 ft 169 kts 215°
2026-05-04 21:00 -5.10428 -63.39819 4562 ft 169 kts 214°
2026-05-04 21:00 -5.11348 -63.40524 4561 ft 168 kts 214°
2026-05-04 21:00 -5.12280 -63.41233 4565 ft 168 kts 214°
2026-05-04 21:01 -5.13213 -63.41944 4562 ft 168 kts 214°
2026-05-04 21:01 -5.14146 -63.42650 4559 ft 168 kts 214°
2026-05-04 21:01 -5.15083 -63.43352 4560 ft 168 kts 214°
2026-05-04 21:01 -5.16026 -63.44054 4562 ft 169 kts 214°
2026-05-04 21:02 -5.16973 -63.44761 4561 ft 170 kts 214°
2026-05-04 21:02 -5.17918 -63.45469 4566 ft 169 kts 214°
2026-05-04 21:02 -5.18864 -63.46170 4561 ft 169 kts 214°
2026-05-04 21:02 -5.19810 -63.46879 4561 ft 170 kts 214°
2026-05-04 21:03 -5.20758 -63.47587 4564 ft 169 kts 214°
2026-05-04 21:03 -5.21691 -63.48281 4566 ft 169 kts 214°
2026-05-04 21:03 -5.22639 -63.48987 4562 ft 169 kts 214°
2026-05-04 21:03 -5.23585 -63.49693 4565 ft 169 kts 214°
2026-05-04 21:04 -5.24535 -63.50395 4556 ft 170 kts 214°
2026-05-04 21:04 -5.25482 -63.51102 4558 ft 170 kts 214°
2026-05-04 21:04 -5.26432 -63.51813 4561 ft 170 kts 214°
2026-05-04 21:04 -5.27377 -63.52527 4557 ft 170 kts 214°
2026-05-04 21:05 -5.28321 -63.53241 4560 ft 170 kts 214°
2026-05-04 21:05 -5.29272 -63.53951 4556 ft 170 kts 214°
2026-05-04 21:05 -5.30229 -63.54669 4496 ft 173 kts 214°
2026-05-04 21:05 -5.31195 -63.55382 4500 ft 171 kts 213°
2026-05-04 21:06 -5.32144 -63.56093 4502 ft 170 kts 214°
2026-05-04 21:06 -5.33097 -63.56801 4504 ft 170 kts 214°
2026-05-04 21:06 -5.34039 -63.57496 4499 ft 170 kts 214°
2026-05-04 21:06 -5.34989 -63.58201 4499 ft 170 kts 214°
2026-05-04 21:07 -5.35941 -63.58904 4502 ft 170 kts 214°
2026-05-04 21:07 -5.36893 -63.59607 4503 ft 170 kts 214°
2026-05-04 21:07 -5.37845 -63.60311 4491 ft 170 kts 214°
2026-05-04 21:07 -5.38796 -63.61013 4498 ft 169 kts 214°
2026-05-04 21:08 -5.39743 -63.61710 4498 ft 169 kts 213°
2026-05-04 21:08 -5.40372 -63.62173 4502 ft 168 kts 214°
2026-05-04 21:08 -5.41632 -63.63095 4501 ft 169 kts 213°
2026-05-04 21:08 -5.42585 -63.63792 4502 ft 169 kts 214°
2026-05-04 21:09 -5.43531 -63.64488 4495 ft 169 kts 213°
2026-05-04 21:09 -5.44159 -63.64949 4500 ft 169 kts 214°
2026-05-04 21:09 -5.45110 -63.65646 4493 ft 169 kts 213°
2026-05-04 21:09 -5.46059 -63.66345 4499 ft 169 kts 214°
2026-05-04 21:10 -5.47011 -63.67042 4498 ft 169 kts 213°
2026-05-04 21:10 -5.47957 -63.67742 4494 ft 168 kts 214°
2026-05-04 21:10 -5.48901 -63.68438 4493 ft 168 kts 214°
2026-05-04 21:10 -5.49848 -63.69135 4499 ft 168 kts 214°
2026-05-04 21:11 -5.50794 -63.69828 4498 ft 168 kts 213°
2026-05-04 21:11 -5.51745 -63.70517 4498 ft 169 kts 213°
2026-05-04 21:11 -5.52696 -63.71211 4500 ft 169 kts 214°
2026-05-04 21:11 -5.53647 -63.71904 4498 ft 169 kts 213°
2026-05-04 21:12 -5.54603 -63.72601 4504 ft 169 kts 213°
2026-05-04 21:12 -5.55560 -63.73298 4505 ft 170 kts 213°
2026-05-04 21:12 -5.56519 -63.73997 4494 ft 170 kts 213°
2026-05-04 21:12 -5.57474 -63.74692 4501 ft 169 kts 213°
2026-05-04 21:13 -5.58418 -63.75375 4495 ft 169 kts 213°
2026-05-04 21:13 -5.59378 -63.76068 4497 ft 169 kts 213°
2026-05-04 21:13 -5.60329 -63.76763 4487 ft 169 kts 213°
2026-05-04 21:13 -5.61281 -63.77455 4492 ft 169 kts 213°
2026-05-04 21:14 -5.62239 -63.78144 4496 ft 169 kts 213°
2026-05-04 21:14 -5.63195 -63.78837 4486 ft 169 kts 213°
2026-05-04 21:14 -5.64153 -63.79528 4502 ft 169 kts 213°
2026-05-04 21:14 -5.65107 -63.80221 4497 ft 169 kts 213°
2026-05-04 21:15 -5.66063 -63.80912 4499 ft 170 kts 213°
2026-05-04 21:15 -5.67020 -63.81604 4500 ft 169 kts 213°
2026-05-04 21:15 -5.67979 -63.82292 4499 ft 169 kts 213°
2026-05-04 21:15 -5.68937 -63.82983 4498 ft 170 kts 213°
2026-05-04 21:16 -5.69899 -63.83669 4492 ft 169 kts 213°
2026-05-04 21:16 -5.70855 -63.84349 4495 ft 168 kts 213°
2026-05-04 21:16 -5.71800 -63.85024 4499 ft 169 kts 213°
2026-05-04 21:16 -5.72760 -63.85705 4503 ft 169 kts 213°
2026-05-04 21:17 -5.73726 -63.86391 4492 ft 170 kts 213°
2026-05-04 21:17 -5.74688 -63.87072 4501 ft 169 kts 213°
2026-05-04 21:17 -5.75654 -63.87755 4498 ft 170 kts 213°
2026-05-04 21:17 -5.76617 -63.88436 4501 ft 169 kts 213°
2026-05-04 21:18 -5.77580 -63.89119 4495 ft 169 kts 213°
2026-05-04 21:18 -5.78541 -63.89797 4498 ft 169 kts 212°
2026-05-04 21:18 -5.79506 -63.90479 4501 ft 170 kts 213°
2026-05-04 21:18 -5.80473 -63.91162 4488 ft 169 kts 213°
2026-05-04 21:19 -5.81435 -63.91841 4501 ft 169 kts 213°
2026-05-04 21:19 -5.82400 -63.92520 4501 ft 169 kts 213°
2026-05-04 21:19 -5.83364 -63.93197 4502 ft 169 kts 212°
2026-05-04 21:19 -5.84313 -63.93866 4501 ft 169 kts 212°
2026-05-04 21:20 -5.85273 -63.94547 4497 ft 168 kts 213°
2026-05-04 21:20 -5.86228 -63.95226 4502 ft 168 kts 212°
2026-05-04 21:20 -5.87186 -63.95904 4492 ft 168 kts 212°
2026-05-04 21:20 -5.88143 -63.96582 4496 ft 168 kts 213°
2026-05-04 21:21 -5.89106 -63.97258 4492 ft 168 kts 212°
2026-05-04 21:21 -5.90064 -63.97936 4495 ft 169 kts 213°
2026-05-04 21:21 -5.91024 -63.98614 4492 ft 169 kts 212°
2026-05-04 21:21 -5.91987 -63.99291 4498 ft 169 kts 212°
2026-05-04 21:22 -5.92935 -63.99961 4497 ft 169 kts 212°
2026-05-04 21:22 -5.93899 -64.00640 4492 ft 169 kts 212°
2026-05-04 21:22 -5.94867 -64.01319 4495 ft 169 kts 212°
2026-05-04 21:22 -5.95830 -64.01995 4502 ft 169 kts 212°
2026-05-04 21:23 -5.96799 -64.02677 4497 ft 170 kts 212°
2026-05-04 21:23 -5.97770 -64.03356 4500 ft 170 kts 212°
2026-05-04 21:23 -5.98736 -64.04029 4498 ft 169 kts 212°
2026-05-04 21:23 -5.99703 -64.04704 4495 ft 169 kts 212°
2026-05-04 21:24 -6.00668 -64.05376 4498 ft 169 kts 212°
2026-05-04 21:24 -6.01628 -64.06050 4500 ft 168 kts 212°
2026-05-04 21:24 -6.02590 -64.06722 4501 ft 168 kts 212°
2026-05-04 21:24 -6.03553 -64.07396 4498 ft 168 kts 212°
2026-05-04 21:25 -6.04505 -64.08061 4500 ft 168 kts 212°
2026-05-04 21:25 -6.05465 -64.08737 4503 ft 168 kts 212°
2026-05-04 21:25 -6.06427 -64.09413 4499 ft 169 kts 212°
2026-05-04 21:25 -6.07391 -64.10090 4498 ft 169 kts 212°
2026-05-04 21:26 -6.08351 -64.10769 4498 ft 169 kts 212°
2026-05-04 21:26 -6.09311 -64.11447 4499 ft 169 kts 212°
2026-05-04 21:26 -6.10276 -64.12125 4504 ft 169 kts 212°
2026-05-04 21:26 -6.11244 -64.12802 4495 ft 169 kts 212°
2026-05-04 21:27 -6.12211 -64.13475 4502 ft 169 kts 212°
2026-05-04 21:27 -6.13161 -64.14144 4503 ft 168 kts 212°
2026-05-04 21:27 -6.14123 -64.14819 4502 ft 168 kts 212°
2026-05-04 21:27 -6.15086 -64.15488 4503 ft 169 kts 212°
2026-05-04 21:28 -6.16049 -64.16164 4504 ft 169 kts 212°
2026-05-04 21:28 -6.17010 -64.16843 4510 ft 170 kts 212°
2026-05-04 21:28 -6.17979 -64.17532 4508 ft 171 kts 212°
2026-05-04 21:28 -6.18955 -64.18215 4512 ft 172 kts 212°
2026-05-04 21:29 -6.19942 -64.18898 4515 ft 173 kts 212°
2026-05-04 21:29 -6.20933 -64.19550 4655 ft 166 kts 212°
2026-05-04 21:29 -6.21915 -64.20146 4624 ft 164 kts 212°
2026-05-04 21:29 -6.22896 -64.20741 4554 ft 165 kts 212°
2026-05-04 21:30 -6.23881 -64.21338 4502 ft 164 kts 212°
2026-05-04 21:30 -6.24851 -64.21925 4503 ft 162 kts 212°
2026-05-04 21:30 -6.25809 -64.22505 4502 ft 160 kts 212°
2026-05-04 21:30 -6.26765 -64.23083 4503 ft 160 kts 211°
2026-05-04 21:31 -6.28675 -64.24236 4501 ft 160 kts 211°
2026-05-04 21:31 -6.29630 -64.24812 4501 ft 160 kts 211°
2026-05-04 21:31 -6.30573 -64.25380 4499 ft 160 kts 211°
2026-05-04 21:32 -6.31527 -64.25954 4498 ft 160 kts 211°
2026-05-04 21:32 -6.32481 -64.26526 4500 ft 159 kts 211°
2026-05-04 21:32 -6.33433 -64.27098 4501 ft 159 kts 211°
2026-05-04 21:32 -6.34387 -64.27670 4498 ft 160 kts 211°
2026-05-04 21:33 -6.35341 -64.28241 4501 ft 160 kts 211°
2026-05-04 21:33 -6.36296 -64.28811 4500 ft 160 kts 211°
2026-05-04 21:33 -6.37250 -64.29382 4501 ft 160 kts 211°
2026-05-04 21:33 -6.38204 -64.29952 4499 ft 160 kts 211°
2026-05-04 21:34 -6.39160 -64.30522 4498 ft 160 kts 211°
2026-05-04 21:34 -6.40118 -64.31093 4501 ft 160 kts 211°
2026-05-04 21:34 -6.41072 -64.31662 4501 ft 160 kts 211°
2026-05-04 21:34 -6.42015 -64.32223 4501 ft 160 kts 211°
2026-05-04 21:35 -6.42973 -64.32792 4502 ft 160 kts 211°
2026-05-04 21:35 -6.43933 -64.33361 4499 ft 160 kts 211°
2026-05-04 21:35 -6.44890 -64.33929 4500 ft 160 kts 211°
2026-05-04 21:35 -6.45847 -64.34496 4499 ft 160 kts 211°
2026-05-04 21:36 -6.46803 -64.35062 4499 ft 160 kts 211°
2026-05-04 21:36 -6.47748 -64.35621 4498 ft 159 kts 211°
2026-05-04 21:36 -6.48707 -64.36187 4499 ft 160 kts 211°
2026-05-04 21:36 -6.49667 -64.36754 4499 ft 160 kts 211°
2026-05-04 21:37 -6.50624 -64.37318 4499 ft 160 kts 211°
2026-05-04 21:37 -6.51582 -64.37881 4500 ft 160 kts 211°
2026-05-04 21:37 -6.52543 -64.38446 4499 ft 160 kts 211°
2026-05-04 21:37 -6.53505 -64.39011 4501 ft 160 kts 211°
2026-05-04 21:38 -6.54466 -64.39575 4499 ft 160 kts 211°
2026-05-04 21:38 -6.55427 -64.40138 4501 ft 160 kts 211°
2026-05-04 21:38 -6.56386 -64.40701 4500 ft 160 kts 211°
2026-05-04 21:38 -6.57347 -64.41263 4499 ft 160 kts 211°
2026-05-04 21:39 -6.58308 -64.41825 4501 ft 160 kts 211°
2026-05-04 21:39 -6.59256 -64.42379 4499 ft 160 kts 211°
2026-05-04 21:39 -6.60216 -64.42940 4501 ft 160 kts 211°
2026-05-04 21:39 -6.61180 -64.43502 4500 ft 160 kts 211°
2026-05-04 21:40 -6.62140 -64.44062 4500 ft 160 kts 211°
2026-05-04 21:40 -6.63102 -64.44622 4501 ft 160 kts 211°
2026-05-04 21:40 -6.64064 -64.45181 4501 ft 160 kts 211°
2026-05-04 21:40 -6.65028 -64.45741 4501 ft 160 kts 211°
2026-05-04 21:41 -6.65991 -64.46300 4499 ft 160 kts 211°
2026-05-04 21:41 -6.66954 -64.46859 4499 ft 160 kts 210°
2026-05-04 21:41 -6.67917 -64.47417 4500 ft 160 kts 210°
2026-05-04 21:41 -6.68879 -64.47974 4501 ft 160 kts 210°
2026-05-04 21:42 -6.69843 -64.48531 4501 ft 160 kts 210°
2026-05-04 21:42 -6.70805 -64.49086 4499 ft 160 kts 210°
2026-05-04 21:42 -6.71769 -64.49642 4501 ft 160 kts 210°
2026-05-04 21:42 -6.72732 -64.50198 4499 ft 160 kts 210°
2026-05-04 21:43 -6.73684 -64.50747 4501 ft 160 kts 210°
2026-05-04 21:43 -6.74648 -64.51301 4501 ft 160 kts 210°
2026-05-04 21:43 -6.75611 -64.51855 4499 ft 160 kts 210°
2026-05-04 21:43 -6.76575 -64.52408 4501 ft 160 kts 210°
2026-05-04 21:44 -6.77540 -64.52962 4501 ft 160 kts 210°
2026-05-04 21:44 -6.78504 -64.53514 4500 ft 160 kts 210°
2026-05-04 21:44 -6.79469 -64.54067 4502 ft 160 kts 210°
2026-05-04 21:44 -6.80436 -64.54620 4501 ft 160 kts 210°
2026-05-04 21:45 -6.81402 -64.55172 4501 ft 160 kts 210°
2026-05-04 21:45 -6.82367 -64.55723 4502 ft 160 kts 210°
2026-05-04 21:45 -6.83335 -64.56275 4500 ft 160 kts 210°
2026-05-04 21:45 -6.84302 -64.56825 4500 ft 160 kts 210°
2026-05-04 21:46 -6.85269 -64.57375 4494 ft 160 kts 210°
2026-05-04 21:46 -6.86243 -64.57928 4468 ft 161 kts 210°
2026-05-04 21:46 -6.87221 -64.58483 4443 ft 161 kts 210°
2026-05-04 21:46 -6.88201 -64.59039 4419 ft 162 kts 210°
2026-05-04 21:47 -6.89167 -64.59588 4395 ft 162 kts 210°
2026-05-04 21:47 -6.90150 -64.60145 4360 ft 162 kts 210°
2026-05-04 21:47 -6.91132 -64.60701 4345 ft 162 kts 210°
2026-05-04 21:47 -6.92114 -64.61256 4318 ft 162 kts 210°
2026-05-04 21:48 -6.93097 -64.61810 4295 ft 162 kts 210°
2026-05-04 21:48 -6.94079 -64.62364 4268 ft 162 kts 210°
2026-05-04 21:48 -6.95064 -64.62919 4245 ft 162 kts 210°
2026-05-04 21:48 -6.96048 -64.63473 4220 ft 162 kts 210°
2026-05-04 21:49 -6.97031 -64.64026 4195 ft 162 kts 210°
2026-05-04 21:49 -6.98017 -64.64580 4170 ft 162 kts 210°
2026-05-04 21:49 -6.99000 -64.65133 4145 ft 162 kts 210°
2026-05-04 21:49 -6.99949 -64.65716 4119 ft 162 kts 213°
2026-05-04 21:50 -7.00904 -64.66318 4095 ft 162 kts 212°
2026-05-04 21:50 -7.01860 -64.66921 4070 ft 162 kts 212°
2026-05-04 21:50 -7.02816 -64.67524 4045 ft 162 kts 212°
2026-05-04 21:50 -7.03771 -64.68126 4020 ft 162 kts 212°
2026-05-04 21:51 -7.04727 -64.68728 3993 ft 162 kts 212°
2026-05-04 21:51 -7.05684 -64.69330 3970 ft 162 kts 212°
2026-05-04 21:51 -7.06643 -64.69932 3945 ft 162 kts 212°
2026-05-04 21:51 -7.07607 -64.70537 3877 ft 164 kts 212°
2026-05-04 21:52 -7.08582 -64.71148 3803 ft 165 kts 212°
2026-05-04 21:52 -7.09560 -64.71760 3729 ft 166 kts 212°
2026-05-04 21:52 -7.10541 -64.72374 3654 ft 166 kts 212°
2026-05-04 21:52 -7.11511 -64.72980 3580 ft 166 kts 212°
2026-05-04 21:53 -7.12494 -64.73595 3507 ft 166 kts 212°
2026-05-04 21:53 -7.13479 -64.74209 3431 ft 166 kts 212°
2026-05-04 21:53 -7.14463 -64.74823 3359 ft 166 kts 212°
2026-05-04 21:53 -7.15451 -64.75439 3258 ft 168 kts 212°
2026-05-04 21:54 -7.16444 -64.76058 3159 ft 168 kts 212°
2026-05-04 21:54 -7.17451 -64.76665 3055 ft 168 kts 209°
2026-05-04 21:54 -7.18503 -64.77182 2952 ft 168 kts 206°
2026-05-04 21:54 -7.19563 -64.77693 2856 ft 169 kts 206°
2026-05-04 21:55 -7.20622 -64.78204 2758 ft 169 kts 206°
2026-05-04 21:55 -7.21682 -64.78715 2658 ft 169 kts 206°
2026-05-04 21:55 -7.22387 -64.79053 2588 ft 169 kts 206°
2026-05-04 21:55 -7.23513 -64.79391 2483 ft 170 kts 191°
2026-05-04 21:56 -7.24699 -64.79512 2309 ft 173 kts 185°
2026-05-04 21:56 -7.25909 -64.79606 2136 ft 174 kts 185°
2026-05-04 21:56 -7.27516 -64.79671 1898 ft 175 kts 182°
2026-05-04 21:56 -7.28323 -64.79690 1788 ft 175 kts 182°
2026-05-04 21:57 -7.29544 -64.79720 1614 ft 175 kts 182°
2026-05-04 21:57 -7.31160 -64.79758 1369 ft 176 kts 182°
2026-05-04 21:57 -7.31977 -64.79776 1348 ft 169 kts 182°
2026-05-04 21:57 -7.32963 -64.79728 1288 ft 120 kts 165°
2026-05-04 21:58 -7.33392 -64.79163 1103 ft 99 kts 94°
2026-05-04 21:58 -7.33277 -64.78544 996 ft 89 kts 57°
2026-05-04 21:58 -7.32952 -64.78050 922 ft 84 kts 65°
2026-05-04 21:58 -7.32678 -64.77542 857 ft 81 kts 60°
2026-05-04 21:59 -7.32382 -64.77064 777 ft 81 kts 48°
2026-05-04 21:59 -7.31837 -64.76954 659 ft 82 kts
2026-05-04 21:59 -7.31270 -64.76867 608 ft 84 kts
2026-05-04 21:59 -7.30683 -64.76795 554 ft 86 kts
2026-05-04 22:00 -7.30091 -64.76789 478 ft 84 kts 356°
2026-05-04 22:00 -7.29511 -64.76841 389 ft 86 kts 353°
2026-05-04 22:00 -7.28904 -64.76889 308 ft 86 kts 356°
2026-05-04 22:00 -7.28345 -64.76922 241 ft 75 kts 355°
2026-05-04 22:01 -7.27872 -64.76952 237 ft 59 kts 359°
2026-05-04 22:01 -7.27653 -64.76955 237 ft 6 kts 255°
2026-05-04 22:01 -7.27723 -64.76959 237 ft 17 kts 178°
2026-05-04 22:01 -7.27858 -64.76946 237 ft 20 kts 178°
2026-05-04 22:02 -7.27987 -64.76954 237 ft 15 kts 244°
2026-05-04 22:02 -7.27988 -64.76966 237 ft 0 kts 311°
2026-05-04 22:02 -7.27983 -64.76967 237 ft 0 kts 348°